CYP462 LCLK-LGRP

Flight info

Callsign CYP462
Flight time 0h 59m
Altitude 38000
Route PHA M31 GENOS DCT TOSKA/N0402F240 M978 VAXOS N128 FOXLI
Aircraft A320/M-SDE3FGHIRWY/LB1

Departure

Time 2026-05-06 14:21
Airport Larnaca International Airport (LCLK)

Arrival

Time 2026-05-06 15:21
Airport Rhodes International Airport "Diagoras" (LGRP)
Time Latitude Longitude Altitude Speed Heading
2026-05-06 14:01 34.86839 33.60999 21 ft 0 kts 45°
2026-05-06 14:12 34.86838 33.60998 20 ft 1 kts 45°
2026-05-06 14:13 34.86821 33.60977 20 ft 4 kts 45°
2026-05-06 14:13 34.86806 33.60959 23 ft 4 kts 47°
2026-05-06 14:13 34.86787 33.60943 23 ft 3 kts 14°
2026-05-06 14:13 34.86769 33.60933 21 ft 4 kts 88°
2026-05-06 14:14 34.86779 33.60912 22 ft 4 kts 135°
2026-05-06 14:14 34.86785 33.60905 22 ft 0 kts 135°
2026-05-06 14:17 34.86764 33.60929 22 ft 9 kts 137°
2026-05-06 14:17 34.86703 33.61000 21 ft 14 kts 135°
2026-05-06 14:17 34.86642 33.61093 21 ft 14 kts 108°
2026-05-06 14:17 34.86682 33.61188 21 ft 13 kts 45°
2026-05-06 14:18 34.86749 33.61271 18 ft 14 kts 45°
2026-05-06 14:18 34.86820 33.61356 19 ft 14 kts 44°
2026-05-06 14:18 34.86883 33.61431 18 ft 12 kts 44°
2026-05-06 14:18 34.86938 33.61497 18 ft 11 kts 45°
2026-05-06 14:19 34.86989 33.61561 18 ft 11 kts 45°
2026-05-06 14:19 34.87066 33.61654 21 ft 20 kts 44°
2026-05-06 14:19 34.87193 33.61804 22 ft 29 kts 46°
2026-05-06 14:19 34.87336 33.61988 20 ft 32 kts 47°
2026-05-06 14:20 34.87456 33.62150 19 ft 16 kts 69°
2026-05-06 14:20 34.87403 33.62262 20 ft 17 kts 136°
2026-05-06 14:20 34.87354 33.62359 19 ft 9 kts 175°
2026-05-06 14:20 34.87337 33.62346 18 ft 0 kts 226°
2026-05-06 14:21 34.87153 33.62123 22 ft 83 kts 225°
2026-05-06 14:21 34.86537 33.61384 77 ft 154 kts 221°
2026-05-06 14:21 34.85740 33.60432 823 ft 166 kts 225°
2026-05-06 14:22 34.84931 33.59377 1702 ft 178 kts 227°
2026-05-06 14:22 34.84057 33.58191 2189 ft 199 kts 229°
2026-05-06 14:22 34.83072 33.56883 2563 ft 219 kts 228°
2026-05-06 14:22 34.81978 33.55458 2982 ft 242 kts 228°
2026-05-06 14:23 34.80767 33.53892 3541 ft 261 kts 227°
2026-05-06 14:23 34.79503 33.52266 4433 ft 267 kts 227°
2026-05-06 14:23 34.78216 33.50612 5336 ft 272 kts 229°
2026-05-06 14:23 34.76910 33.48936 6229 ft 277 kts 228°
2026-05-06 14:24 34.75571 33.47220 7091 ft 282 kts 229°
2026-05-06 14:24 34.74213 33.45484 7999 ft 285 kts 229°
2026-05-06 14:24 34.72829 33.43721 8925 ft 287 kts 229°
2026-05-06 14:24 34.71459 33.41981 9844 ft 289 kts 228°
2026-05-06 14:25 34.70085 33.40133 10380 ft 304 kts 235°
2026-05-06 14:25 34.68965 33.37845 10656 ft 324 kts 248°
2026-05-06 14:25 34.68289 33.35194 11243 ft 330 kts 261°
2026-05-06 14:25 34.68101 33.32436 11974 ft 333 kts 273°
2026-05-06 14:26 34.68217 33.29594 12732 ft 337 kts 274°
2026-05-06 14:26 34.68335 33.26760 13497 ft 341 kts 274°
2026-05-06 14:26 34.68452 33.23866 14206 ft 344 kts 274°
2026-05-06 14:26 34.68568 33.20946 14900 ft 347 kts 274°
2026-05-06 14:27 34.68683 33.17996 15601 ft 349 kts 274°
2026-05-06 14:27 34.68798 33.15076 16285 ft 351 kts 274°
2026-05-06 14:27 34.68916 33.12097 17047 ft 351 kts 274°
2026-05-06 14:27 34.69034 33.09126 17793 ft 351 kts 274°
2026-05-06 14:28 34.69149 33.06185 18475 ft 353 kts 274°
2026-05-06 14:28 34.69264 33.03189 19074 ft 354 kts 274°
2026-05-06 14:28 34.69376 33.00180 19696 ft 356 kts 274°
2026-05-06 14:28 34.69489 32.97168 20315 ft 358 kts 274°
2026-05-06 14:29 34.69605 32.94127 20933 ft 359 kts 274°
2026-05-06 14:29 34.69721 32.91112 21547 ft 361 kts 274°
2026-05-06 14:29 34.69835 32.88058 22152 ft 362 kts 274°
2026-05-06 14:29 34.69949 32.84977 22722 ft 365 kts 274°
2026-05-06 14:30 34.70061 32.81916 23288 ft 366 kts 274°
2026-05-06 14:30 34.70175 32.78806 23825 ft 368 kts 275°
2026-05-06 14:30 34.70292 32.75679 24278 ft 370 kts 274°
2026-05-06 14:30 34.70407 32.72565 24717 ft 372 kts 274°
2026-05-06 14:31 34.70523 32.69412 25140 ft 374 kts 274°
2026-05-06 14:31 34.70637 32.66234 25552 ft 376 kts 274°
2026-05-06 14:31 34.70747 32.63090 25945 ft 378 kts 274°
2026-05-06 14:31 34.70860 32.59881 26320 ft 381 kts 275°
2026-05-06 14:32 34.70971 32.56648 26700 ft 383 kts 274°
2026-05-06 14:32 34.71081 32.53391 27087 ft 386 kts 274°
2026-05-06 14:32 34.71152 32.50111 27465 ft 389 kts 270°
2026-05-06 14:32 34.70992 32.46852 27832 ft 391 kts 269°
2026-05-06 14:33 34.70816 32.43538 28204 ft 393 kts 269°
2026-05-06 14:33 34.70637 32.40202 28566 ft 395 kts 269°
2026-05-06 14:33 34.70454 32.36849 28887 ft 397 kts 269°
2026-05-06 14:33 34.70273 32.33532 29255 ft 398 kts 269°
2026-05-06 14:34 34.70091 32.30154 29587 ft 400 kts 269°
2026-05-06 14:34 34.69913 32.26750 29909 ft 402 kts 269°
2026-05-06 14:34 34.69739 32.23390 30205 ft 403 kts 269°
2026-05-06 14:34 34.69557 32.19958 30462 ft 405 kts 269°
2026-05-06 14:35 34.69374 32.16581 30709 ft 406 kts 269°
2026-05-06 14:35 34.69183 32.13131 30955 ft 408 kts 269°
2026-05-06 14:35 34.68991 32.09684 31194 ft 409 kts 269°
2026-05-06 14:35 34.68798 32.06227 31481 ft 408 kts 269°
2026-05-06 14:36 34.68605 32.02825 31801 ft 407 kts 269°
2026-05-06 14:36 34.68410 31.99398 32125 ft 406 kts 269°
2026-05-06 14:36 34.68214 31.95964 32451 ft 405 kts 269°
2026-05-06 14:36 34.68021 31.92545 32784 ft 403 kts 270°
2026-05-06 14:37 34.68081 31.89192 33105 ft 399 kts 278°
2026-05-06 14:37 34.68564 31.85869 33431 ft 397 kts 282°
2026-05-06 14:37 34.69101 31.82568 33756 ft 396 kts 282°
2026-05-06 14:37 34.69622 31.79315 34081 ft 395 kts 282°
2026-05-06 14:38 34.70140 31.76032 34362 ft 395 kts 282°
2026-05-06 14:38 34.70657 31.72747 34619 ft 394 kts 282°
2026-05-06 14:38 34.71167 31.69497 34853 ft 395 kts 282°
2026-05-06 14:38 34.71686 31.66208 35077 ft 395 kts 282°
2026-05-06 14:39 34.72205 31.62908 35295 ft 396 kts 282°
2026-05-06 14:39 34.72717 31.59648 35508 ft 396 kts 282°
2026-05-06 14:39 34.73236 31.56341 35716 ft 396 kts 282°
2026-05-06 14:39 34.73753 31.53037 35921 ft 397 kts 282°
2026-05-06 14:40 34.74262 31.49777 36117 ft 397 kts 282°
2026-05-06 14:40 34.74777 31.46478 36316 ft 396 kts 282°
2026-05-06 14:40 34.75290 31.43182 36529 ft 396 kts 282°
2026-05-06 14:40 34.75803 31.39879 36719 ft 396 kts 282°
2026-05-06 14:41 34.76311 31.36603 36900 ft 397 kts 282°
2026-05-06 14:41 34.76823 31.33299 37074 ft 397 kts 282°
2026-05-06 14:41 34.77336 31.29991 37248 ft 398 kts 282°
2026-05-06 14:41 34.77848 31.26674 37417 ft 398 kts 282°
2026-05-06 14:42 34.78352 31.23403 37588 ft 398 kts 282°
2026-05-06 14:42 34.78863 31.20078 37750 ft 399 kts 282°
2026-05-06 14:42 34.79373 31.16756 37911 ft 399 kts 282°
2026-05-06 14:42 34.79882 31.13427 38050 ft 400 kts 282°
2026-05-06 14:43 34.80897 31.06795 38068 ft 400 kts 282°
2026-05-06 14:43 34.81905 31.00149 38074 ft 400 kts 282°
2026-05-06 14:44 34.82904 30.93500 38071 ft 399 kts 282°
2026-05-06 14:45 34.84413 30.83517 38072 ft 399 kts 282°
2026-05-06 14:45 34.85416 30.76898 38078 ft 399 kts 282°
2026-05-06 14:46 34.86419 30.70231 38083 ft 400 kts 282°
2026-05-06 14:46 34.87409 30.63551 38089 ft 400 kts 282°
2026-05-06 14:47 34.88388 30.56909 38086 ft 400 kts 282°
2026-05-06 14:47 34.89379 30.50216 38087 ft 400 kts 282°
2026-05-06 14:48 34.90360 30.43576 38089 ft 400 kts 282°
2026-05-06 14:48 34.91336 30.36908 38083 ft 400 kts 282°
2026-05-06 14:49 34.92310 30.30209 38088 ft 400 kts 282°
2026-05-06 14:49 34.93277 30.23541 38090 ft 400 kts 282°
2026-05-06 14:50 34.94244 30.16878 38088 ft 400 kts 282°
2026-05-06 14:50 34.95217 30.10163 38098 ft 401 kts 282°
2026-05-06 14:51 34.96174 30.03500 38097 ft 401 kts 282°
2026-05-06 14:51 34.96818 29.96726 38096 ft 402 kts 276°
2026-05-06 14:52 34.97099 29.89918 38092 ft 402 kts 276°
2026-05-06 14:52 34.97377 29.83136 38073 ft 403 kts 275°
2026-05-06 14:53 34.97647 29.76283 38082 ft 403 kts 276°
2026-05-06 14:53 34.97922 29.69472 38089 ft 403 kts 276°
2026-05-06 14:54 34.98198 29.62657 38093 ft 403 kts 276°
2026-05-06 14:54 34.98460 29.55809 38097 ft 403 kts 275°
2026-05-06 14:55 34.98723 29.48983 38096 ft 403 kts 276°
2026-05-06 14:55 34.98986 29.42190 38104 ft 403 kts 276°
2026-05-06 14:56 35.00043 29.35552 38096 ft 396 kts 295°
2026-05-06 14:56 35.03136 29.30074 38062 ft 396 kts 315°
2026-05-06 14:56 35.05257 29.27948 37304 ft 401 kts 320°
2026-05-06 14:57 35.07492 29.25912 36684 ft 398 kts 321°
2026-05-06 14:57 35.09719 29.23911 36025 ft 396 kts 321°
2026-05-06 14:57 35.11942 29.21912 35325 ft 396 kts 321°
2026-05-06 14:57 35.14143 29.19921 34567 ft 398 kts 320°
2026-05-06 14:58 35.16379 29.17888 33776 ft 399 kts 320°
2026-05-06 14:58 35.18609 29.15854 32951 ft 399 kts 321°
2026-05-06 14:58 35.20075 29.14515 32647 ft 394 kts 321°
2026-05-06 14:58 35.22956 29.11877 31940 ft 386 kts 321°
2026-05-06 14:59 35.24381 29.10567 31588 ft 382 kts 321°
2026-05-06 14:59 35.27183 29.07990 30899 ft 376 kts 322°
2026-05-06 14:59 35.28571 29.06715 30557 ft 374 kts 322°
2026-05-06 14:59 35.30649 29.04805 30048 ft 370 kts 322°
2026-05-06 15:00 35.32694 29.02921 29495 ft 365 kts 322°
2026-05-06 15:00 35.34714 29.01059 29010 ft 359 kts 322°
2026-05-06 15:00 35.36685 28.99247 28536 ft 355 kts 322°
2026-05-06 15:00 35.38652 28.97438 28060 ft 350 kts 322°
2026-05-06 15:01 35.40592 28.95652 27575 ft 346 kts 322°
2026-05-06 15:01 35.42496 28.93895 27137 ft 343 kts 322°
2026-05-06 15:01 35.44396 28.92141 26681 ft 340 kts 322°
2026-05-06 15:01 35.45957 28.90703 26319 ft 338 kts 322°
2026-05-06 15:02 35.47712 28.89081 25904 ft 335 kts 322°
2026-05-06 15:02 35.49551 28.87383 25469 ft 334 kts 322°
2026-05-06 15:02 35.51407 28.85666 25059 ft 332 kts 322°
2026-05-06 15:02 35.53253 28.83958 24644 ft 331 kts 322°
2026-05-06 15:03 35.55092 28.82256 24232 ft 329 kts 322°
2026-05-06 15:03 35.56901 28.80583 23834 ft 328 kts 322°
2026-05-06 15:03 35.58722 28.78893 23392 ft 327 kts 322°
2026-05-06 15:03 35.60538 28.77206 22980 ft 325 kts 322°
2026-05-06 15:04 35.62346 28.75528 22594 ft 324 kts 322°
2026-05-06 15:04 35.64126 28.73876 22195 ft 322 kts 322°
2026-05-06 15:04 35.65914 28.72218 21798 ft 321 kts 322°
2026-05-06 15:04 35.67695 28.70563 21400 ft 319 kts 322°
2026-05-06 15:05 35.69464 28.68919 20986 ft 317 kts 322°
2026-05-06 15:05 35.71205 28.67302 20590 ft 316 kts 322°
2026-05-06 15:05 35.72956 28.65671 20179 ft 314 kts 322°
2026-05-06 15:05 35.74704 28.64040 19768 ft 313 kts 322°
2026-05-06 15:06 35.76443 28.62418 19354 ft 312 kts 322°
2026-05-06 15:06 35.78149 28.60829 18946 ft 311 kts 322°
2026-05-06 15:06 35.79878 28.59212 18522 ft 311 kts 322°
2026-05-06 15:06 35.81606 28.57600 18083 ft 310 kts 322°
2026-05-06 15:07 35.83304 28.56017 17665 ft 308 kts 322°
2026-05-06 15:07 35.85007 28.54423 17260 ft 306 kts 322°
2026-05-06 15:07 35.86706 28.52827 16858 ft 305 kts 322°
2026-05-06 15:07 35.88392 28.51245 16459 ft 303 kts 322°
2026-05-06 15:08 35.90077 28.49667 16062 ft 302 kts 322°
2026-05-06 15:08 35.91728 28.48125 15671 ft 301 kts 323°
2026-05-06 15:08 35.93403 28.46561 15277 ft 300 kts 323°
2026-05-06 15:08 35.95070 28.45003 14884 ft 299 kts 323°
2026-05-06 15:09 35.96708 28.43469 14498 ft 299 kts 323°
2026-05-06 15:09 35.98364 28.41913 14099 ft 299 kts 323°
2026-05-06 15:09 36.00029 28.40349 13682 ft 298 kts 323°
2026-05-06 15:09 36.01733 28.38952 13259 ft 297 kts 332°
2026-05-06 15:10 36.03661 28.37988 12836 ft 297 kts 343°
2026-05-06 15:10 36.05651 28.37298 12406 ft 296 kts 343°
2026-05-06 15:10 36.07615 28.36615 11971 ft 295 kts 343°
2026-05-06 15:10 36.09594 28.35921 11543 ft 294 kts 343°
2026-05-06 15:11 36.11573 28.35222 11107 ft 293 kts 343°
2026-05-06 15:11 36.13512 28.34537 10676 ft 293 kts 344°
2026-05-06 15:11 36.15477 28.33844 10353 ft 288 kts 344°
2026-05-06 15:11 36.17376 28.33174 10192 ft 278 kts 344°
2026-05-06 15:12 36.19220 28.32617 10022 ft 274 kts 352°
2026-05-06 15:12 36.21126 28.32603 9897 ft 274 kts
2026-05-06 15:12 36.22984 28.33088 9534 ft 276 kts 12°
2026-05-06 15:12 36.24858 28.33645 9060 ft 276 kts 12°
2026-05-06 15:13 36.26718 28.34199 8677 ft 273 kts 12°
2026-05-06 15:13 36.28580 28.34752 8235 ft 273 kts 12°
2026-05-06 15:13 36.30393 28.35287 7898 ft 268 kts 13°
2026-05-06 15:13 36.32217 28.35825 7475 ft 268 kts 13°
2026-05-06 15:14 36.34026 28.36361 7071 ft 266 kts 13°
2026-05-06 15:14 36.35829 28.36897 6672 ft 264 kts 13°
2026-05-06 15:14 36.37585 28.37417 6090 ft 261 kts 13°
2026-05-06 15:14 36.39348 28.37936 5351 ft 260 kts 13°
2026-05-06 15:15 36.41097 28.38452 4831 ft 256 kts 12°
2026-05-06 15:15 36.42846 28.38846 4353 ft 254 kts
2026-05-06 15:15 36.44564 28.38483 3999 ft 244 kts 337°
2026-05-06 15:15 36.45928 28.37441 3946 ft 226 kts 318°
2026-05-06 15:16 36.46880 28.35954 3878 ft 215 kts 302°
2026-05-06 15:16 36.47372 28.34213 3803 ft 215 kts 284°
2026-05-06 15:16 36.47386 28.32375 3615 ft 218 kts 264°
2026-05-06 15:16 36.46937 28.30565 3362 ft 219 kts 255°
2026-05-06 15:17 36.46417 28.28790 3078 ft 217 kts 254°
2026-05-06 15:17 36.45904 28.27030 2782 ft 216 kts 254°
2026-05-06 15:17 36.45402 28.25304 2506 ft 213 kts 254°
2026-05-06 15:17 36.44908 28.23611 2227 ft 202 kts 254°
2026-05-06 15:18 36.44446 28.22026 1999 ft 188 kts 253°
2026-05-06 15:18 36.44018 28.20560 1734 ft 171 kts 254°
2026-05-06 15:18 36.43636 28.19249 1514 ft 156 kts 256°
2026-05-06 15:18 36.43279 28.18024 1315 ft 145 kts 255°
2026-05-06 15:19 36.42946 28.16879 1132 ft 137 kts 255°
2026-05-06 15:19 36.42626 28.15783 954 ft 134 kts 253°
2026-05-06 15:19 36.42313 28.14713 786 ft 133 kts 253°
2026-05-06 15:19 36.42002 28.13643 633 ft 132 kts 251°
2026-05-06 15:20 36.41690 28.12560 459 ft 132 kts 249°
2026-05-06 15:20 36.41369 28.11482 279 ft 134 kts 249°
2026-05-06 15:20 36.41059 28.10409 94 ft 132 kts 250°
2026-05-06 15:20 36.40765 28.09384 32 ft 112 kts 250°
2026-05-06 15:21 36.40550 28.08662 28 ft 64 kts 250°
2026-05-06 15:21 36.40445 28.08303 28 ft 36 kts 249°
2026-05-06 15:21 36.40349 28.08041 29 ft 31 kts 233°
2026-05-06 15:21 36.40199 28.07867 28 ft 29 kts 213°
2026-05-06 15:22 36.40129 28.07896 28 ft 10 kts 86°
2026-05-06 15:22 36.40165 28.07968 28 ft 9 kts 64°
2026-05-06 15:22 36.40186 28.08038 28 ft 8 kts 70°
2026-05-06 15:22 36.40203 28.08099 28 ft 7 kts 70°
2026-05-06 15:23 36.40221 28.08160 28 ft 8 kts 70°
2026-05-06 15:23 36.40248 28.08252 28 ft 15 kts 70°
2026-05-06 15:23 36.40283 28.08371 28 ft 14 kts 70°
2026-05-06 15:23 36.40317 28.08482 28 ft 13 kts 69°
2026-05-06 15:24 36.40348 28.08588 28 ft 13 kts 70°
2026-05-06 15:24 36.40379 28.08697 28 ft 13 kts 72°
2026-05-06 15:24 36.40401 28.08804 28 ft 12 kts 83°
2026-05-06 15:24 36.40398 28.08906 28 ft 11 kts 96°
2026-05-06 15:25 36.40367 28.08961 28 ft 8 kts 155°
2026-05-06 15:25 36.40327 28.08980 28 ft 2 kts 160°
2026-05-06 15:25 36.40321 28.08982 28 ft 0 kts 160°